Regional Weather Roundup
Issued by NWS

Home | Current Version | Previous Version | Text Only | Print | Product List | Glossary On
Versions: 1 2 3 4 5 6 7 8 9 10 11 12 13 14 15 16 17 18 19 20 21 22 23 24 25 26 27 28 29 30 31 32 33 34 35 36 37 38 39 40 41 42 43 44 45 46 47 48 49 50
000
ASUS42 KFFC 291803
RWRGA
WEATHER ROUNDUP FOR GEORGIA
NATIONAL WEATHER SERVICE PEACHTREE CITY GA
200 PM EDT FRI JUL 29 2016

NOTE: "FAIR" INDICATES FEW OR NO CLOUDS BELOW 12,000 FEET WITH NO
SIGNIFICANT WEATHER AND/OR OBSTRUCTIONS TO VISIBILITY.

* = USE WITH CAUTION. THE STATIONS MARKED WITH AN ASTERISK MAY NOT
REPORT WEATHER SUCH AS PRECIPITATION, FOG, OR THUNDER AND ARE NOT
QUALITY CONTROLLED BY NWS.

THE REMARK "TC" DENOTES TEMPERATURE READING IN DEGREES CELSIUS.

GAZ001>058-291900-
NORTH GEORGIA

CITY           SKY/WX    TMP DP  RH WIND       PRES   REMARKS
ATLANTA        PTSUNNY   90  68  48 W12G21    30.02F HX  94
6HR MIN TEMP:  74; 6HR MAX TEMP:  92;

ATHENS         MOSUNNY   92  70  48 W5        30.00F HX  97
6HR MIN TEMP:  77; 6HR MAX TEMP:  92;

CHAMBLEE       PTSUNNY   88  68  51 SW9       30.02F HX  91
6HR MIN TEMP:  74; 6HR MAX TEMP:  90;

PEACHTREE CITY PTSUNNY   89  68  49 W10G17    30.03F HX  93
6HR MIN TEMP:  73; 6HR MAX TEMP:  90;

ROME           CLOUDY    86  70  58 W8        30.00F HX  90
6HR MIN TEMP:  75; 6HR MAX TEMP:  87; 6HR PCP: TRACE;

WEST ATLANTA   MOSUNNY   89  67  47 W9        30.01F HX  92
6HR MIN TEMP:  74; 6HR MAX TEMP:  89;

GAINESVILLE    MOSUNNY   87  68  52 SW10G21   30.04F HX  90
6HR MIN TEMP:  74; 6HR MAX TEMP:  88;

CARTERSVILLE   MOSUNNY   89  69  51 MISG      30.01F HX  93
6HR MIN TEMP:  74; 6HR MAX TEMP:  89;



CITY           SKY/WX    TMP DP  RH WIND       PRES   REMARKS
DALTON*        CLOUDY    82  73  74 N5        30.00F
LAWRENCEVILLE* PTSUNNY   86  70  58 W12G18    30.02F HX  90
MARIETTA       PTSUNNY   87  71  59 SW12      30.02F HX  92
KENNESAW*      PTSUNNY   84  68  58 W12       29.98F
CANTON*        MOSUNNY   86  61  42 W7        30.04F
BLAIRSVILLE*     N/A    N/A N/A N/A MISG      30.06F
$$

GAZ059>098-102>109-291900-
CENTRAL GEORGIA

CITY           SKY/WX    TMP DP  RH WIND       PRES   REMARKS
AUGUSTA-BUSH   PTSUNNY   94  67  41 W13G22    29.96F HX  97
6HR MIN TEMP:  79; 6HR MAX TEMP:  97;

AUGUSTA-DANIEL MOSUNNY   95  67  39 W12G28    29.98F HX  99
6HR MIN TEMP:  80; 6HR MAX TEMP:  97;

COLUMBUS       SUNNY     93  65  39 NW9G20    30.01F HX  95
6HR MIN TEMP:  77; 6HR MAX TEMP:  95;

MACON          SUNNY     97  65  34 W16G23    30.00F HX  99
6HR MIN TEMP:  77; 6HR MAX TEMP:  97;

ROBINS AFB     MOSUNNY   95  68  41 W17       29.99F HX  99


CITY           SKY/WX    TMP DP  RH WIND       PRES   REMARKS
LAGRANGE*      PTSUNNY   92  74  56 W8        30.04S HX 101
MILLEDGEVILLE* PTSUNNY   91  72  52 W8        30.00F HX  98
$$

GAZ099>101-110>166-291900-
SOUTH GEORGIA

CITY           SKY/WX    TMP DP  RH WIND       PRES   REMARKS
SAVANNAH       MOSUNNY   97  69  40 W12G20    29.98F HX 103
6HR MIN TEMP:  80; 6HR MAX TEMP:  97;

VALDOSTA       MOSUNNY   94  72  48 CALM      30.04F HX 102
6HR MIN TEMP:  78; 6HR MAX TEMP:  94;

ALMA           MOSUNNY   95  69  42 W12       30.01F HX 100
6HR MIN TEMP:  78; 6HR MAX TEMP:  96;

ST SIMONS      SUNNY     97  66  36 SW13      30.00F HX 100
6HR MIN TEMP:  81; 6HR MAX TEMP:  98;

ALBANY         MOSUNNY   94  69  44 W10G16    30.04F HX  99
HUNTER AFB     MOSUNNY   97  75  49 W13       29.96F HX 109
MOODY AFB      PTSUNNY   94  70  44 W13       30.04S HX 100
BRUNSWICK      MOSUNNY   97  73  46 W8        30.01F HX 107


CITY           SKY/WX    TMP DP  RH WIND       PRES   REMARKS
BAINBRIDGE*    SUNNY     95  70  43 W5        30.04F HX 101
MOULTRIE*      MOSUNNY   91  70  49 SW7       30.05F HX  97
VIDALIA*       MOSUNNY   99  64  32 W13G18    30.00F HX 101
WAYCROSS*      MOSUNNY  100  73  41 W8        30.02S HX 111
DOUGLAS*       MOSUNNY   95  66  38 W6        30.04S HX  98
$$



USA.gov is the U.S. government's official web portal to all federal, state and local government web resources and services.